Simultaneous Nadir Overpasses (SNOs) Predictions

Prediction of SNOs between METOP-C and LANDSAT-8 Satellite Orbit:

Table of predicted SNOs for the next 14.0 days since TLE Epoch: 6/7/2025
Index Date (METOP-C) Time (METOP-C) Lat,Lon (METOP-C) SZA (METOP-C ) Date (LANDSAT-8) Time (LANDSAT-8) Lat,Lon (LANDSAT-8) SZA (LANDSAT-8 ) Distance(km) Time Diff (sec)
1 06/09/2025 01:32:20 -81.11, 16.86 119.64 06/09/2025 01:32:30 -81.11, 16.72 119.65 2.38 10
2 06/09/2025 02:23:00 81.13,-175.40 60.42 06/09/2025 02:21:56 81.12,-175.53 60.37 2.45 64
3 06/11/2025 21:06:44 -81.11, 83.04 119.88 06/11/2025 21:06:49 -81.10, 82.87 119.91 2.97 5
4 06/11/2025 21:57:23 81.13,-108.87 60.22 06/11/2025 21:56:14 81.12,-109.05 60.16 3.06 69
5 06/14/2025 15:50:28 81.07, -18.80 59.84 06/14/2025 15:51:40 81.07, -18.74 59.87 0.99 72
6 06/14/2025 16:41:07 -81.10, 149.16 120.09 06/14/2025 16:41:06 -81.09, 149.26 120.08 1.75 1
7 06/14/2025 17:31:10 81.33, -28.75 61.78 06/14/2025 17:29:57 81.70, -29.31 61.87 42.25 73
8 06/17/2025 11:24:50 81.09, 47.99 59.78 06/17/2025 11:25:57 81.08, 47.86 59.79 2.37 67
9 06/17/2025 12:15:29 -81.11,-144.01 120.14 06/17/2025 12:15:23 -81.11,-144.11 120.16 1.68 6
10 06/20/2025 06:59:13 81.08, 114.36 59.71 06/20/2025 07:00:14 81.08, 114.34 59.73 0.29 61



Historial Predications of SNOs between METOP-C and LANDSAT-8
